Location: Bessat
(45.8735°N, 1.9924°E)
Time: 23:16:55
(UTC+00:00)

Cosmos 1975 - Pass Details

Date: 11 May 2021
Orbit: 541 x 560 km, 82.5° (Epoch: 24 June)

Event Time Altitude Azimuth Distance (km) Brightness Sun altitude
Rises 22:54:54 0° 352° (N) 2,715 7.7 -24.9°
Reaches altitude 10° 22:57:04 10° 353° (N) 1,817 6.5 -24.9°
Enters shadow 23:00:23 59° 6° (N) 629 3.2 -25.1°
